1491393600.69,15822,15.19,73570.5,12.41,-19.47,-15.49,0,*45
1491393601.92,15823,15.19,73570.8,12.37,-20.59,-16.79,0,*40
1491393603.21,15824,15.19,73570.8,12.37,-21.27,-17.21,0,*43
1491393604.49,15825,15.25,73570.8,12.33,-20.35,-16.17,0,*40
1491393605.77,15826,15.25,73570.0,12.29,-21.23,-17.11,0,*49
1491393607.01,15827,15.25,73572.8,12.27,-20.59,-16.31,0,*49
1491393608.24,15828,15.19,73570.8,12.23,-20.99,-16.75,0,*4E
1491393609.47,15829,15.19,73572.5,12.17,-21.09,-16.59,0,*4E
1491393610.71,15830,15.19,73570.3,12.17,-20.43,-15.95,0,*4A
1491393611.94,15831,15.19,73570.0,12.15,-19.75,-15.21,0,*49
1491393613.15,15832,15.19,73570.8,12.15,-19.71,-15.07,0,*4A
1491393614.39,15833,15.19,73572.5,12.11,-19.47,-14.79,0,*42
1491393615.59,15834,15.25,73572.3,12.11,-19.03,-14.29,0,*40
1491393616.86,15835,15.19,73572.3,12.11,-19.27,-14.55,0,*4C
1491393618.12,15836,15.19,73572.3,12.11,-20.53,-15.85,0,*4A
1491393619.38,15837,15.25,73572.8,12.07,-21.03,-16.17,0,*40
1491393620.66,15838,15.19,73574.0,12.01,-20.49,-15.57,0,*41
1491393621.93,15839,15.25,73572.3,12.01,-20.39,-15.43,0,*42
1491393623.15,15840,15.25,73574.8,11.99,-19.81,-15.11,0,*40
1491393624.39,15841,15.19,73574.3,11.97,-19.95,-15.07,0,*4D
1491393625.61,15842,15.19,73570.5,11.97,-21.77,-16.89,0,*4C
1491393626.87,15843,15.19,73570.5,11.97,-20.93,-16.09,0,*4E
1491393628.07,15844,15.19,73568.8,11.93,-20.29,-15.25,0,*41
1491393629.33,15845,15.19,73568.3,11.91,-19.75,-14.79,0,*49
1491393630.57,15846,15.19,73568.0,11.89,-20.15,-15.21,0,*43
1491393631.78,15847,15.19,73572.0,11.89,-20.39,-15.29,0,*44
1491393632.99,15848,15.19,73570.3,11.85,-20.25,-15.11,0,*41
1491393634.2,15849,15.19,73570.5,11.85,-19.37,-14.19,0,*40
1491393635.4,15850,15.25,73572.0,11.85,-18.65,-13.51,0,*45
1491393636.64,15851,15.19,73570.5,11.85,-19.51,-14.47,0,*42
1491393637.88,15852,15.19,73570.0,11.85,-19.13,-14.01,0,*45
1491393639.12,15853,15.19,73568.8,11.85,-19.07,-14.01,0,*41
1491393640.33,15854,15.19,73570.0,11.85,-19.37,-14.29,0,*4F
1491393641.55,15855,15.25,73572.3,11.85,-19.81,-14.65,0,*4B
1491393642.82,15856,15.25,73570.8,11.79,-19.61,-14.33,0,*46
1491393644.08,15857,15.19,73568.5,11.79,-18.93,-13.55,0,*4C
1491393645.31,15858,15.25,73572.5,11.79,-18.99,-13.55,0,*49
1491393646.55,15859,15.19,73570.0,11.79,-18.83,-13.23,0,*42
1491393647.81,15860,15.25,73574.0,11.79,-18.93,-13.23,0,*49
1491393649.1,15861,15.25,73570.8,11.75,-19.31,-13.83,0,*47
1491393650.33,15862,15.25,73572.5,11.73,-19.17,-13.33,0,*4D
1491393651.58,15863,15.25,73570.0,11.75,-19.13,-13.51,0,*4A
1491393652.81,15864,15.19,73570.0,11.73,-20.63,-14.79,0,*4B
1491393654.04,15865,15.19,73566.8,11.73,-20.15,-14.19,0,*4D
1491393655.32,15866,15.25,73570.0,11.71,-20.53,-14.55,0,*46
1491393656.58,15867,15.25,73568.3,11.67,-20.83,-14.89,0,*4C
1491393657.79,15868,15.19,73570.3,11.65,-21.73,-15.67,0,*4E
1491393659.02,15869,15.19,73564.3,11.65,-21.03,-15.07,0,*4E
1491393660.26,15870,15.19,73568.0,11.61,-21.47,-15.49,0,*48
1491393661.47,15871,15.25,73568.8,11.59,-21.77,-15.71,0,*4A
1491393662.73,15872,15.25,73570.0,11.53,-21.97,-15.95,0,*47
1491393663.94,15873,15.25,73570.8,11.51,-21.17,-15.15,0,*44
1491393665.17,15874,15.25,73568.8,11.47,-21.13,-15.01,0,*45
1491393666.39,15875,15.25,73570.0,11.47,-21.93,-15.75,0,*4F
1491393667.65,15876,15.19,73566.8,11.43,-21.97,-15.89,0,*4F
1491393668.91,15877,15.19,73566.8,11.41,-20.59,-14.51,0,*4B
1491393670.15,15878,15.19,73568.0,11.39,-20.63,-14.47,0,*45
1491393671.39,15879,15.19,73568.3,11.37,-20.25,-14.23,0,*4A
1491393672.6,15880,15.19,73570.8,11.35,-19.95,-13.93,0,*43
1491393673.81,15881,15.25,73570.0,11.35,-19.75,-13.55,0,*46
1491393675.06,15882,15.25,73568.3,11.29,-20.19,-14.01,0,*4E
1491393676.29,15883,15.25,73570.3,11.29,-20.15,-13.93,0,*4F
1491393677.52,15884,15.25,73568.3,11.29,-20.49,-14.33,0,*4C
1491393678.78,15885,15.19,73568.8,11.27,-20.83,-14.65,0,*46
1491393680.02,15886,15.25,73570.3,11.25,-21.33,-15.07,0,*48
1491393681.25,15887,15.25,73570.0,11.25,-20.79,-14.29,0,*4B
1491393682.49,15888,15.19,73568.0,11.21,-20.89,-14.47,0,*47
1491393683.7,15889,15.25,73568.8,11.17,-21.13,-14.69,0,*4D
1491393684.91,15890,15.19,73568.8,11.17,-20.93,-14.33,0,*43
1491393686.14,15891,15.25,73570.8,11.13,-20.69,-14.01,0,*42
1491393687.37,15892,15.19,73568.5,11.13,-20.83,-14.11,0,*44
1491393688.66,15893,15.25,73572.8,11.11,-20.15,-13.61,0,*48
1491393689.94,15894,15.19,73568.5,11.07,-19.85,-13.29,0,*47
1491393691.2,15895,15.25,73572.0,11.07,-20.15,-13.51,0,*4A
1491393692.46,15896,15.25,73572.0,11.07,-20.09,-13.33,0,*40
1491393693.71,15897,15.25,73568.3,11.03,-20.19,-13.65,0,*47
1491393694.97,15898,15.19,73570.0,11.03,-21.63,-14.93,0,*4A
1491393696.19,15899,15.19,73568.8,10.99,-21.17,-14.37,0,*44
1491393697.44,15900,15.25,73570.0,10.99,-21.23,-14.69,0,*49
1491393698.69,15901,15.19,73570.0,10.95,-21.43,-14.79,0,*43
1491393699.95,15902,15.19,73570.8,10.95,-21.13,-14.47,0,*48
1491393701.18,15903,15.25,73570.0,10.91,-20.89,-14.29,0,*47
1491393702.43,15904,15.19,73568.0,10.91,-23.33,-16.75,0,*49
1491393703.65,15905,15.25,73568.5,10.85,-23.85,-17.31,0,*41
1491393704.9,15906,15.25,73570.8,10.81,-22.73,-16.13,0,*4F
1491393706.12,15907,15.19,73570.3,10.79,-21.17,-14.69,0,*47
1491393707.34,15908,15.25,73568.3,10.77,-21.47,-14.93,0,*46
1491393708.56,15909,15.25,73570.3,10.75,-22.07,-15.67,0,*48
1491393709.81,15910,15.25,73572.5,10.71,-22.41,-16.17,0,*42
1491393711.07,15911,15.19,73568.8,10.71,-21.77,-15.43,0,*47
1491393712.33,15912,15.19,73568.3,10.69,-21.27,-14.83,0,*45
1491393713.53,15913,15.19,73570.3,10.63,-22.83,-16.55,0,*4A
1491393714.76,15914,15.25,73568.3,10.61,-21.43,-15.25,0,*44
1491393716.0,15915,15.25,73572.3,10.61,-21.77,-15.53,0,*43
1491393717.21,15916,15.25,73570.5,10.59,-21.43,-15.29,0,*41
1491393718.47,15917,15.19,73568.8,10.57,-21.53,-15.49,0,*49
1491393719.7,15918,15.25,73570.8,10.55,-21.63,-15.57,0,*48
1491393720.91,15919,15.25,73568.3,10.55,-21.39,-15.49,0,*49
1491393722.15,15920,15.25,73570.0,10.51,-21.87,-15.95,0,*43
1491393723.35,15921,15.25,73572.8,10.51,-22.27,-16.45,0,*45
1491393724.61,15922,15.25,73568.3,10.47,-23.03,-17.21,0,*45
1491393725.87,15923,15.25,73570.5,10.41,-22.83,-17.07,0,*4F
1491393727.15,15924,15.25,73570.0,10.41,-21.83,-16.17,0,*4B
1491393728.4,15925,15.19,73570.0,10.37,-22.03,-16.27,0,*43
1491393729.65,15926,15.25,73572.5,10.37,-22.07,-16.69,0,*4E
1491393730.88,15927,15.25,73570.0,10.33,-21.39,-15.85,0,*44
1491393732.08,15928,15.25,73570.8,10.33,-20.73,-15.15,0,*4D
1491393733.34,15929,15.25,73572.0,10.31,-21.27,-15.75,0,*48
1491393734.6,15930,15.25,73570.8,10.29,-21.53,-16.13,0,*49
1491393735.83,15931,15.25,73568.5,10.25,-21.53,-16.03,0,*45
1491393737.06,15932,15.25,73570.5,10.25,-21.53,-16.03,0,*46
1491393738.34,15933,15.25,73572.5,10.23,-20.79,-15.21,0,*4B
1491393739.56,15934,15.25,73568.8,10.23,-20.25,-14.61,0,*40
1491393740.79,15935,15.25,73570.3,10.21,-19.99,-14.43,0,*4E
1491393742.01,15936,15.25,73568.3,10.21,-20.73,-15.01,0,*44
1491393743.24,15937,15.19,73564.8,10.17,-20.19,-14.61,0,*4B
1491393744.48,15938,15.25,73572.3,10.17,-20.99,-15.25,0,*4D
1491393745.71,15939,15.19,73570.8,10.15,-21.93,-16.03,0,*42
1491393746.97,15940,15.25,73568.3,10.11,-21.73,-15.89,0,*47
1491393748.23,15941,15.25,73570.5,10.07,-21.27,-15.11,0,*41
1491393749.52,15942,15.25,73570.8,10.07,-21.57,-15.35,0,*43
1491393750.77,15943,15.25,73574.5,10.05,-21.67,-15.25,0,*42
1491393752.01,15944,15.25,73570.0,10.01,-21.63,-15.01,0,*43
1491393753.27,15945,15.25,73570.0,9.99,-21.27,-14.47,0,*78
1491393754.5,15946,15.25,73570.0,9.95,-21.23,-14.37,0,*74
1491393755.72,15947,15.19,73568.0,9.93,-21.13,-14.15,0,*70
1491393756.92,15948,15.25,73568.3,9.91,-21.09,-14.11,0,*72
1491393758.17,15949,15.19,73568.8,9.89,-21.09,-13.97,0,*73
1491393759.39,15950,15.25,73570.5,9.89,-21.17,-13.73,0,*7E
1491393760.61,15951,15.25,73568.0,9.85,-21.43,-13.93,0,*7C
1491393761.85,15952,15.25,73572.8,9.81,-21.33,-13.65,0,*75
1491393763.07,15953,15.25,73568.8,9.81,-21.17,-13.43,0,*76
1491393764.3,15954,15.25,73570.8,9.81,-20.89,-12.89,0,*70
1491393765.55,15955,15.19,73566.0,9.79,-19.31,-11.33,0,*7D
1491393766.78,15956,15.25,73568.5,9.79,-19.47,-11.29,0,*74
1491393768.01,15957,15.25,73568.5,9.79,-19.51,-11.29,0,*72
1491393769.25,15958,15.25,73566.5,9.77,-19.81,-11.45,0,*74
1491393770.49,15959,15.25,73568.0,9.77,-20.05,-11.63,0,*77
1491393771.73,15960,15.25,73568.0,9.77,-20.05,-11.59,0,*74
1491393772.99,15961,15.25,73570.0,9.77,-20.35,-11.81,0,*73
1491393774.25,15962,15.25,73570.3,9.73,-20.63,-11.93,0,*74
1491393775.45,15963,15.25,73566.5,9.71,-19.99,-11.23,0,*73
1491393776.67,15964,15.25,73570.3,9.73,-20.09,-11.41,0,*71
1491393777.89,15965,15.25,73568.8,9.71,-20.25,-11.51,0,*7D
1491393779.16,15966,15.25,73568.0,9.69,-20.99,-11.97,0,*7A
1491393780.41,15967,15.19,73564.0,9.67,-20.83,-11.97,0,*7E
1491393781.63,15968,15.25,73570.3,9.67,-20.73,-11.85,0,*7D
1491393782.86,15969,15.25,73564.3,9.67,-20.59,-11.77,0,*79
1491393784.08,15970,15.25,73566.0,9.63,-21.09,-12.11,0,*72
1491393785.27,15971,15.25,73564.8,9.63,-21.43,-12.39,0,*77
1491393786.49,15972,15.25,73566.3,9.59,-21.63,-12.83,0,*7E
1491393787.69,15973,15.25,73570.0,9.59,-21.13,-12.25,0,*74
1491393788.95,15974,15.25,73566.5,9.59,-21.03,-12.11,0,*75
1491393790.17,15975,15.25,73566.0,9.55,-21.09,-12.07,0,*75
1491393791.41,15976,15.25,73566.8,9.55,-20.79,-11.77,0,*74
1491393792.63,15977,15.25,73566.8,9.55,-20.89,-11.89,0,*7B
1491393793.86,15978,15.25,73568.0,9.53,-20.39,-11.41,0,*7D
1491393795.1,15979,15.25,73570.0,9.49,-20.35,-11.45,0,*7F
1491393796.35,15980,15.25,73568.0,9.49,-21.17,-12.11,0,*7A
1491393797.57,15981,15.25,73570.8,9.47,-19.81,-10.89,0,*72
1491393798.8,15982,15.25,73570.5,9.47,-20.43,-11.55,0,*75
1491393800.02,15983,15.25,73564.8,9.47,-20.39,-11.33,0,*79
1491393801.27,15984,15.25,73564.5,9.45,-20.63,-11.85,0,*7E
1491393802.55,15985,15.25,73570.0,9.45,-21.53,-12.61,0,*74
1491393803.78,15986,15.25,73568.0,9.43,-20.79,-12.03,0,*7C
1491393805.0,15987,15.25,73566.3,9.43,-20.15,-11.45,0,*76
1491393806.25,15988,15.25,73564.3,9.43,-19.85,-11.33,0,*7B
1491393807.49,15989,15.25,73564.5,9.43,-19.81,-11.37,0,*7A
1491393808.73,15990,15.25,73564.0,9.41,-20.05,-11.77,0,*72
1491393809.96,15991,15.25,73568.0,9.41,-20.69,-12.47,0,*79
1491393811.21,15992,15.25,73566.8,9.41,-19.91,-11.93,0,*7D
1491393812.47,15993,15.25,73564.3,9.41,-19.91,-12.11,0,*75
1491393813.72,15994,15.25,73564.8,9.41,-19.75,-12.11,0,*78
1491393815.0,15995,15.25,73568.5,9.41,-19.23,-11.89,0,*78
1491393816.25,15996,15.25,73566.0,9.39,-19.41,-12.29,0,*79
1491393817.53,15997,15.25,73568.3,9.41,-19.41,-12.53,0,*7A
1491393818.76,15998,15.25,73566.0,9.43,-19.17,-12.57,0,*70
1491393820.02,15999,15.25,73564.3,9.41,-19.57,-13.23,0,*75
1491393821.27,16000,15.25,73566.3,9.41,-20.05,-14.05,0,*71
1491393822.53,16001,15.25,73564.3,9.39,-19.65,-13.87,0,*7E
1491393823.76,16002,15.25,73562.0,9.41,-19.07,-13.65,0,*7A
1491393824.99,16003,15.25,73566.8,9.43,-18.45,-13.29,0,*76
1491393826.24,16004,15.25,73566.5,9.41,-19.91,-14.93,0,*7D
1491393827.49,16005,15.19,73564.3,9.41,-18.83,-13.97,0,*7D
1491393828.75,16006,15.25,73570.3,9.39,-19.57,-14.89,0,*71
1491393829.95,16007,15.25,73568.0,9.37,-19.47,-15.11,0,*7F
1491393831.14,16008,15.25,73570.8,9.37,-18.49,-14.23,0,*7F
1491393832.38,16009,15.25,73568.8,9.35,-18.45,-14.43,0,*76
1491393833.6,16010,15.25,73570.5,9.35,-18.45,-14.69,0,*76
1491393834.83,16011,15.25,73570.3,9.33,-19.03,-15.43,0,*7B
1491393836.02,16012,15.25,73564.5,9.37,-18.11,-14.69,0,*77
1491393837.28,16013,15.25,73570.0,9.33,-18.31,-15.01,0,*7F
1491393838.53,16014,15.19,73566.8,9.33,-19.65,-16.65,0,*79
1491393839.78,16015,15.25,73566.8,9.27,-18.25,-15.39,0,*72
1491393841.04,16016,15.25,73568.5,9.27,-18.65,-15.81,0,*76
1491393842.29,16017,15.25,73568.0,9.33,-17.11,-14.55,0,*76
1491393843.49,16018,15.25,73564.3,9.25,-17.73,-15.15,0,*7F
1491393844.72,16019,15.25,73564.5,9.25,-17.35,-14.83,0,*72
1491393845.97,16020,15.25,73570.0,9.25,-17.21,-14.97,0,*78
1491393847.2,16021,15.25,73564.5,9.25,-16.83,-14.55,0,*7E
1491393848.48,16022,15.25,73568.5,9.23,-16.17,-14.01,0,*77
1491393849.67,16023,15.25,73566.5,9.25,-14.65,-12.43,0,*77
1491393850.89,16024,15.25,73568.3,9.25,-14.15,-12.03,0,*73
1491393852.13,16025,15.25,73570.5,9.25,-13.79,-11.73,0,*7B
1491393853.38,16026,15.25,73566.8,9.31,-13.73,-11.77,0,*73
1491393854.63,16027,15.25,73566.3,9.31,-14.11,-12.15,0,*76
1491393855.86,16028,15.25,73564.5,9.31,-14.19,-12.25,0,*72
1491393857.1,16029,15.25,73560.8,9.35,-12.83,-10.93,0,*7D
1491393858.35,16030,15.25,73562.5,9.37,-12.65,-10.71,0,*73
1491393859.62,16031,15.25,73560.5,9.39,-12.57,-10.63,0,*7E
1491393860.91,16032,15.25,73564.5,9.41,-12.35,-10.41,0,*76
1491393862.16,16033,15.25,73560.8,9.43,-11.77,-9.83,0,*46
1491393863.4,16034,15.25,73562.5,9.45,-11.59,-9.31,0,*42
1491393864.61,16035,15.25,73566.8,9.47,-11.33,-9.19,0,*47
1491393865.83,16036,15.25,73564.5,9.53,-11.15,-9.01,0,*4C
1491393867.05,16037,15.25,73564.5,9.57,-10.93,-8.63,0,*43
1491393868.3,16038,15.25,73564.8,9.57,-11.33,-9.01,0,*42
1491393869.52,16039,15.25,73562.5,9.61,-11.23,-8.89,0,*46
1491393870.77,16040,15.25,73564.0,9.61,-11.29,-9.05,0,*47
1491393871.99,16041,15.25,73566.0,9.65,-11.11,-8.59,0,*41
1491393873.24,16042,15.25,73566.0,9.65,-10.41,-7.83,0,*4E
1491393874.44,16043,15.25,73564.3,9.67,-11.41,-8.85,0,*45
1491393875.7,16044,15.25,73560.8,9.69,-10.75,-8.03,0,*44
1491393876.91,16045,15.25,73562.0,9.71,-10.45,-7.69,0,*4C
1491393878.16,16046,15.25,73566.0,9.77,-10.49,-7.57,0,*48
1491393879.38,16047,15.25,73564.0,9.79,-11.15,-8.07,0,*45
1491393880.57,16048,15.25,73560.3,9.79,-11.19,-8.17,0,*47
1491393881.82,16049,15.25,73560.8,9.83,-12.57,-9.37,0,*49
1491393883.09,16050,15.25,73566.0,9.81,-12.83,-9.53,0,*48
1491393884.33,16051,15.25,73566.0,9.81,-12.75,-9.27,0,*43
1491393885.58,16052,15.25,73562.5,9.81,-13.33,-9.93,0,*4C
1491393886.79,16053,15.25,73562.3,9.79,-14.15,-10.57,0,*79
1491393888.05,16054,15.25,73564.3,9.77,-14.01,-10.35,0,*71
1491393889.29,16055,15.25,73562.3,9.77,-13.37,-9.67,0,*4D
1491393890.53,16056,15.25,73564.0,9.73,-13.51,-9.71,0,*4D
1491393891.75,16057,15.25,73558.5,9.71,-13.51,-9.61,0,*4F
1491393892.97,16058,15.25,73560.5,9.71,-13.51,-9.57,0,*45
1491393894.19,16059,15.25,73562.8,9.69,-13.43,-9.27,0,*49
1491393895.4,16060,15.25,73560.3,9.67,-12.97,-8.81,0,*48
1491393896.59,16061,15.25,73562.5,9.67,-13.55,-9.23,0,*4F
1491393897.79,16062,15.25,73562.3,9.67,-13.23,-8.93,0,*47
1491393899.01,16063,15.25,73564.0,9.65,-13.07,-8.63,0,*4D
1491393900.22,16064,15.25,73560.5,9.63,-13.79,-9.23,0,*40
1491393901.44,16065,15.25,73566.3,9.61,-13.65,-9.05,0,*4A
1491393902.63,16066,15.25,73562.8,9.59,-13.07,-8.25,0,*45
1491393903.85,16067,15.25,73560.5,9.59,-12.65,-7.87,0,*46
1491393905.09,16068,15.25,73560.5,9.57,-12.89,-7.95,0,*46
1491393906.31,16069,15.25,73566.3,9.57,-13.15,-8.21,0,*43
1491393907.55,16070,15.25,73564.0,9.55,-12.79,-7.77,0,*4E
1491393908.76,16071,15.25,73562.3,9.55,-12.71,-7.53,0,*41
1491393909.98,16072,15.25,73564.5,9.55,-12.75,-7.49,0,*4D
1491393911.21,16073,15.25,73562.3,9.53,-13.23,-7.87,0,*4A
1491393912.45,16074,15.25,73560.5,9.49,-13.69,-8.11,0,*48
1491393913.7,16075,15.25,73564.8,9.45,-13.07,-7.39,0,*48
1491393914.96,16076,15.25,73566.0,9.45,-13.79,-8.03,0,*44
1491393916.19,16077,15.25,73564.5,9.45,-13.07,-7.15,0,*44
1491393917.46,16078,15.25,73566.0,9.41,-12.65,-6.63,0,*4A
1491393918.68,16079,15.25,73564.0,9.41,-12.47,-6.39,0,*44
1491393919.95,16080,15.25,73562.8,9.41,-12.11,-5.81,0,*41
1491393921.23,16081,15.25,73562.5,9.41,-12.53,-6.27,0,*49
1491393922.46,16082,15.25,73562.8,9.39,-12.57,-6.13,0,*46
1491393923.7,16083,15.25,73560.0,9.39,-12.29,-5.73,0,*4B
1491393924.94,16084,15.25,73562.3,9.37,-11.81,-5.19,0,*4F
1491393926.16,16085,15.25,73564.0,9.37,-11.97,-5.35,0,*47
1491393927.43,16086,15.25,73564.0,9.39,-11.59,-4.81,0,*46
1491393928.66,16087,15.25,73564.0,9.39,-11.81,-4.99,0,*4B
1491393929.85,16088,15.25,73560.5,9.37,-11.45,-4.45,0,*43
1491393931.04,16089,15.25,73562.3,9.37,-11.41,-4.33,0,*47
1491393932.31,16090,15.25,73560.8,9.39,-12.07,-4.85,0,*4D
1491393933.56,16091,15.25,73562.8,9.35,-12.43,-5.03,0,*4F
1491393934.8,16092,15.25,73562.5,9.33,-12.61,-5.15,0,*4D
1491393936.03,16093,15.25,73560.8,9.33,-12.15,-4.65,0,*49
1491393937.27,16094,15.25,73558.3,9.35,-12.15,-4.49,0,*46
1491393938.51,16095,15.25,73556.3,9.35,-11.97,-4.25,0,*44
1491393939.7,16096,15.25,73562.5,9.33,-11.15,-3.35,0,*4D
1491393940.89,16097,15.25,73560.5,9.37,-11.19,-3.31,0,*40
1491393942.1,16098,15.25,73562.5,9.35,-11.19,-3.35,0,*49
1491393943.32,16099,15.25,73560.0,9.35,-11.23,-3.35,0,*41
1491393944.59,16100,15.25,73560.5,9.35,-10.67,-2.71,0,*40
1491393945.81,16101,15.25,73560.0,9.35,-11.15,-3.11,0,*42
1491393947.03,16102,15.25,73562.3,9.37,-11.81,-3.71,0,*48
1491393948.29,16103,15.25,73560.5,9.35,-11.73,-3.71,0,*46
1491393949.55,16104,15.25,73562.0,9.35,-11.85,-3.63,0,*4B
1491393950.74,16105,15.25,73556.3,9.37,-11.15,-3.07,0,*43
1491393951.96,16106,15.25,73562.8,9.35,-11.01,-2.95,0,*4D
1491393953.15,16107,15.25,73562.0,9.37,-11.11,-3.07,0,*45
1491393954.37,16108,15.25,73562.5,9.35,-10.93,-2.87,0,*4A
1491393955.61,16109,15.25,73560.0,9.35,-10.41,-2.35,0,*4D
1491393956.84,16110,15.25,73560.0,9.35,-10.19,-2.31,0,*4C
1491393958.05,16111,15.25,73560.3,9.35,-10.05,-2.31,0,*40
1491393959.28,16112,15.25,73558.5,9.35,-9.93,-2.11,0,*76
1491393960.49,16113,15.25,73560.8,9.35,-10.09,-2.35,0,*4A
1491393961.7,16114,15.25,73562.3,9.35,-10.89,-3.31,0,*40
1491393962.92,16115,15.25,73564.3,9.35,-10.93,-3.31,0,*4A
1491393964.12,16116,15.25,73564.8,9.35,-10.05,-2.43,0,*42
1491393965.33,16117,15.25,73560.3,9.35,-8.75,-1.25,0,*7E
1491393966.54,16118,15.25,73562.0,9.37,-8.41,-1.01,0,*72
1491393967.74,16119,15.25,73562.8,9.37,-8.29,-0.89,0,*4C
1491393968.98,16120,15.25,73560.5,9.41,-8.45,-1.09,0,*74
1491393970.2,16121,15.25,73562.3,9.43,-8.45,-1.09,0,*77
1491393971.4,16122,15.25,73562.8,9.43,-8.29,-0.97,0,*48
1491393972.61,16123,15.25,73562.8,9.43,-8.21,-0.93,0,*45
1491393973.83,16124,15.25,73564.5,9.47,-8.41,-1.05,0,*7E
1491393975.06,16125,15.25,73560.5,9.47,-8.81,-1.39,0,*7C
1491393976.25,16126,15.25,73564.3,9.47,-8.59,-1.17,0,*76
1491393977.46,16127,15.25,73564.8,9.47,-8.45,-1.09,0,*75
1491393978.68,16128,15.25,73562.3,9.49,-9.19,-1.67,0,*74
1491393979.92,16129,15.25,73564.0,9.49,-8.59,-1.05,0,*74
1491393981.16,16130,15.25,73564.3,9.53,-8.55,-1.01,0,*7F
1491393982.39,16131,15.25,73560.5,9.49,-8.59,-1.01,0,*79
1491393983.63,16132,15.25,73566.5,9.53,-8.75,-1.01,0,*7F
1491393984.87,16133,15.25,73562.3,9.53,-8.89,-1.13,0,*7E
1491393986.08,16134,15.25,73560.8,9.55,-9.11,-1.25,0,*7A
1491393987.28,16135,15.25,73560.5,9.55,-9.71,-1.71,0,*7C
1491393988.46,16136,15.25,73562.5,9.55,-9.27,-1.33,0,*7A
1491393989.71,16137,15.25,73562.0,9.55,-10.75,-2.63,0,*42
1491393990.92,16138,15.25,73562.5,9.55,-11.37,-3.19,0,*46
1491393992.17,16139,15.25,73560.0,9.53,-10.71,-2.35,0,*4D
1491393993.41,16140,15.25,73560.5,9.49,-10.63,-2.15,0,*49
1491393994.66,16141,15.25,73560.3,9.49,-10.71,-2.15,0,*4B
1491393995.93,16142,15.25,73562.0,9.49,-10.71,-2.03,0,*4F
1491393997.16,16143,15.25,73562.5,9.49,-10.97,-2.19,0,*4D
1491393998.38,16144,15.25,73562.8,9.47,-11.07,-2.15,0,*40
1491393999.59,16145,15.25,73564.0,9.47,-10.89,-1.91,0,*49
1491394000.81,16146,15.25,73566.0,9.47,-11.15,-2.03,0,*46
1491394002.05,16147,15.25,73562.5,9.45,-11.51,-2.43,0,*41
1491394003.33,16148,15.25,73560.8,9.45,-11.89,-2.55,0,*4C
1491394004.6,16149,15.25,73564.0,9.45,-11.73,-2.11,0,*48
1491394005.88,16150,15.25,73564.8,9.45,-12.07,-2.47,0,*43
1491394007.13,16151,15.25,73566.8,9.45,-12.75,-2.99,0,*44
1491394008.36,16152,15.25,73562.8,9.43,-12.75,-2.99,0,*41
1491394009.58,16153,15.25,73566.0,9.43,-12.47,-2.59,0,*4D
1491394010.83,16154,15.25,73564.8,9.43,-12.57,-2.59,0,*4B
1491394012.05,16155,15.25,73562.3,9.43,-12.83,-2.83,0,*44
1491394013.27,16156,15.25,73560.8,9.41,-13.07,-3.03,0,*41
1491394014.49,16157,15.25,73562.8,9.41,-13.11,-3.03,0,*47
1491394015.74,16158,15.25,73566.5,9.41,-13.61,-3.39,0,*46
1491394016.95,16159,15.25,73566.0,9.41,-13.47,-3.35,0,*4F
1491394018.17,16160,15.25,73564.3,9.39,-14.23,-4.05,0,*4B
1491394019.38,16161,15.25,73566.0,9.39,-14.65,-4.37,0,*49
1491394020.58,16162,15.25,73560.8,9.37,-14.15,-4.05,0,*42
1491394021.78,16163,15.25,73566.3,9.37,-14.11,-3.83,0,*4E
1491394023.0,16164,15.25,73566.0,9.39,-14.23,-4.05,0,*4F
1491394024.21,16165,15.25,73566.0,9.37,-14.55,-4.33,0,*44
1491394025.43,16166,15.25,73566.0,9.37,-14.43,-4.37,0,*44
1491394026.65,16167,15.25,73562.8,9.39,-14.65,-4.57,0,*49
1491394027.86,16168,15.25,73566.3,9.35,-15.49,-5.39,0,*4C
1491394029.11,16169,15.25,73566.0,9.33,-15.43,-5.31,0,*49
1491394030.33,16170,15.25,73562.8,9.33,-15.57,-5.55,0,*46
1491394031.56,16171,15.25,73564.5,9.31,-15.63,-5.55,0,*42
1491394032.78,16172,15.25,73566.3,9.27,-16.59,-6.69,0,*40
1491394034.0,16173,15.25,73566.8,9.27,-16.45,-6.77,0,*43
1491394035.22,16174,15.25,73564.8,9.27,-16.89,-7.11,0,*45
1491394036.46,16175,15.25,73564.0,9.23,-16.93,-7.27,0,*4E
1491394037.68,16176,15.25,73564.5,9.23,-18.11,-8.45,0,*42
1491394038.92,16177,15.25,73564.8,9.19,-17.31,-7.91,0,*41
1491394040.17,16178,15.25,73564.8,9.17,-17.03,-7.99,0,*49
1491394041.42,16179,15.25,73564.0,9.15,-17.07,-7.87,0,*41
1491394042.69,16180,15.25,73566.0,9.15,-17.03,-7.99,0,*4C
1491394043.93,16181,15.25,73566.3,9.15,-17.21,-8.29,0,*49
1491394045.2,16182,15.25,73566.8,9.11,-17.25,-8.51,0,*45
1491394046.42,16183,15.25,73566.5,9.11,-17.73,-9.05,0,*47
1491394047.66,16184,15.25,73566.5,9.05,-17.21,-8.75,0,*44
1491394048.9,16185,15.25,73562.0,9.05,-16.89,-8.51,0,*40
1491394050.16,16186,15.25,73566.5,9.05,-17.59,-9.37,0,*4E
1491394051.39,16187,15.25,73566.5,9.03,-18.73,-10.63,0,*77
1491394052.63,16188,15.25,73570.5,9.01,-17.93,-9.97,0,*48
1491394053.88,16189,15.25,73566.3,9.01,-17.17,-9.27,0,*4E
1491394055.11,16190,15.25,73568.3,8.97,-17.87,-10.15,0,*78
1491394056.34,16191,15.25,73564.3,8.97,-17.69,-10.15,0,*79
1491394057.59,16192,15.25,73566.3,8.97,-17.41,-9.89,0,*4D
1491394058.83,16193,15.25,73566.3,8.97,-17.21,-9.89,0,*4A
1491394060.08,16194,15.25,73564.3,8.93,-17.55,-10.35,0,*75
1491394061.31,16195,15.25,73566.3,8.93,-17.35,-10.31,0,*76
1491394062.54,16196,15.25,73562.8,8.93,-17.35,-10.31,0,*75
1491394063.81,16197,15.25,73566.5,8.93,-17.63,-10.71,0,*73
1491394065.06,16198,15.25,73566.3,8.89,-17.59,-10.89,0,*79
1491394066.31,16199,15.25,73564.5,8.89,-18.25,-11.37,0,*78
1491394067.53,16200,15.25,73566.8,8.85,-17.73,-10.97,0,*70
1491394068.75,16201,15.25,73564.8,8.87,-18.17,-11.59,0,*7D
1491394070.02,16202,15.25,73564.3,8.85,-19.13,-12.35,0,*70
1491394071.27,16203,15.25,73562.8,8.81,-18.11,-11.59,0,*7F
1491394072.5,16204,15.25,73566.5,8.79,-17.97,-11.41,0,*77
1491394073.75,16205,15.25,73566.0,8.75,-18.17,-11.73,0,*7C
1491394075.0,16206,15.25,73566.8,8.75,-17.55,-11.11,0,*72
1491394076.27,16207,15.25,73564.8,8.75,-17.97,-11.37,0,*79
1491394077.52,16208,15.25,73564.3,8.71,-18.21,-11.67,0,*75
1491394078.79,16209,15.25,73566.5,8.71,-18.59,-12.15,0,*7D
1491394080.05,16210,15.25,73560.8,8.71,-17.45,-11.01,0,*71
1491394081.27,16211,15.25,73560.3,8.71,-17.49,-11.15,0,*79
1491394082.48,16212,15.25,73566.0,8.69,-17.69,-11.45,0,*74
1491394083.74,16213,15.25,73560.8,8.67,-18.93,-12.47,0,*70
1491394085.02,16214,15.25,73564.5,8.63,-18.93,-12.53,0,*76
1491394086.25,16215,15.25,73564.3,8.63,-18.65,-12.21,0,*7B
1491394087.5,16216,15.25,73562.8,8.59,-17.73,-11.29,0,*72
1491394088.78,16217,15.25,73566.0,8.59,-17.03,-10.63,0,*7B
1491394090.02,16218,15.25,73562.3,8.59,-17.35,-10.97,0,*7A
1491394091.27,16219,15.25,73560.3,8.57,-17.11,-10.75,0,*7F
1491394092.55,16220,15.25,73562.3,8.55,-17.11,-10.79,0,*7B
1491394093.8,16221,15.25,73562.8,8.55,-18.11,-11.85,0,*77
1491394095.06,16222,15.25,73562.8,8.53,-17.17,-10.79,0,*79
1491394096.29,16223,15.25,73564.0,8.53,-16.65,-10.23,0,*73
1491394097.52,16224,15.25,73560.8,8.53,-17.11,-10.93,0,*7D
1491394098.72,16225,15.25,73562.3,8.53,-17.31,-10.93,0,*7E
1491394099.98,16226,15.25,73566.0,8.49,-17.07,-10.71,0,*7F
1491394101.18,16227,15.25,73566.0,8.49,-17.31,-10.93,0,*77
1491394102.43,16228,15.25,73562.5,8.51,-16.97,-10.41,0,*73
1491394103.66,16229,15.25,73560.3,8.49,-17.07,-10.49,0,*7B